Location: R�o Tuerlos
(40.6704°N, 4.4622°W)
Time: 05:03:44
(UTC+00:00)

Cosmos 1315 Rocket - Pass Details

Date: 07 June 2020
Orbit: 530 x 568 km, 81.2° (Epoch: 14 July)

Event Time Altitude Azimuth Distance (km) Brightness Sun altitude
Rises 02:14:30 0° 351° (N) 2,684 7.1 -20.9°
Reaches altitude 10° 02:16:39 10° 352° (N) 1,792 6.1 -20.7°
Maximum altitude 02:20:36 85° 80° (E) 544 2.7 -20.3°
Enters shadow 02:21:29 53° 164° (SSE) 667 2.9 -20.2°
